AirNav   Air Wisconsin Airman Trainee
 
 1042 users online  

14J Carl Folsom Airport
Elba, Alabama, USA

GOING TO ELBA?


FAA INFORMATION EFFECTIVE 25 APRIL 2019

Location

FAA Identifier: 14J
Lat/Long: 31-24-36.1500N / 086-05-25.2100W
31-24.602500N / 086-05.420167W
31.4100417 / -86.0903361
(estimated)
Elevation: 258 ft. / 79 m (estimated)
Variation: 00W (1985)
From city: 2 miles W of ELBA, AL
Time zone: UTC -5 (UTC -6 during Standard Time)
Zip code: 36323

Airport Operations

Airport use: Open to the public
Activation date: 07/1955
Control tower: no
ARTCC: JACKSONVILLE CENTER
FSS: ANNISTON FLIGHT SERVICE STATION
NOTAMs facility: ANB (NOTAM-D service available)
Attendance: UNATNDD
Wind indicator: lighted
Segmented circle: no
Lights: AFTER DUSK ACTVT MIRL RY 01/19 - CTAF.
Beacon: white-green (lighted land airport)
Operates sunset to sunrise.

Airport Communications

CTAF: 122.9
WX AWOS-3PT at EDN (12 nm SE): 118.9 (334-347-3524)
WX ASOS at 79J (17 nm W): 134.875 (334-222-9770)

Nearby radio navigation aids

VOR radial/distance  VOR name  Freq  Var
EDNr308/(11.8)ENTERPRISE VOR116.6003W
OZRr297/20.5CAIRNS VOR/DME111.2003W
HEYr278/(22.5)HANCHEY VOR110.6003W
RRSr281/34.6WIREGRASS VORTAC111.6002E

 
NDB name  Hdg/Dist  Freq  Var  ID
BOLL WEEVIL310/7.035203WBVG -... ...- --.
JUDD070/16.626402WJUY .--- ..- -.--
LOWE282/18.026903WLOR .-.. --- .-.
HANCHEY278/22.522103WHYE .... -.-- .
BLOOD182/25.336504WTOI - --- ..

Airport Services

Fuel available: 100LL
FUEL 24 HR CREDIT CARD SVC AVBL.
Parking: hangars and tiedowns
Airframe service: NONE
Bottled oxygen: NONE
Bulk oxygen: NONE

Runway Information

Runway 1/19

Dimensions: 3050 x 75 ft. / 930 x 23 m
RY 01/19 HAS 344 FT BY 100 FT ASPHALT OVERRUN ON THE NORTH END.
Surface: asphalt, in fair condition
Weight bearing capacity: 
Single wheel: 4.0
Runway edge lights: medium intensity
Operational restrictions: CLSD TO HEL MOV SKID LDG
RUNWAY 1  RUNWAY 19
Latitude: 31-24.359500N31-24.844500N
Longitude: 086-05.499167W086-05.343500W
Elevation: 253.5 ft.251.4 ft.
Traffic pattern: leftleft
Markings: basic, in good conditionbasic, in good condition
Touchdown point: yes, no lightsyes, no lights
Obstructions: 53 ft. tree, 1532 ft. from runway, 62 ft. left of centerline, 25:1 slope to clear49 ft. pole, 1255 ft. from runway, 2 ft. left of centerline, 21:1 slope to clear

Airport Ownership and Management from official FAA records

Ownership: Publicly-owned
Owner: ELBA ARPT AUTHORITY
PO BOX 315
ELBA, AL 36323
Phone 334-897-2333
Manager: JAMES R. POOLE
PO BOX 315
ELBA, AL 36323
Phone 334-897-2349

Airport Operational Statistics

Aircraft based on the field: 28
Single engine airplanes: 27
Jet airplanes: 1
    
Aircraft operations: avg 103/week *
63% transient general aviation
32% local general aviation
5% military
* for 12-month period ending 14 August 2019

Instrument Procedures

There are no published instrument procedures at 14J.

Some nearby airports with instrument procedures:

KEDN - Enterprise Municipal Airport (12 nm SE)
79J - South Alabama Regional Airport at Bill Benton Field (17 nm W)
KLOR - Lowe Army Heliport (Fort Rucker) (18 nm E)
KOZR - Cairns Army Airfield (Fort Rucker) (21 nm SE)
KHEY - Hanchey Army Heliport (Fort Rucker) (23 nm E)
 
Loc | Ops | Rwys | IFR | FBO | Links
Com | Nav | Svcs | Stats | Notes
Area around 14J (Carl Folsom Airport)
 
Road maps at: MapQuest Bing Google
 
Aerial photo
WARNING: Photo may not be current or correct
Aerial photo of 14J (Carl Folsom Airport)
Do you have a better or more recent aerial photo of Carl Folsom Airport that you would like to share? If so, please send us your photo.

 
Sectional chart

 
Airport distance calculator
Flying to Carl Folsom Airport? Find the distance to fly.

From to 14J

Sunrise and sunset
Times for 19-May-2019
 Local
(UTC-5)
 Zulu
(UTC)
Morning civil twilight05:2010:20
Sunrise05:4710:47
Sunset19:3500:35
Evening civil twilight20:0201:02

Current date and time
Zulu (UTC)  19-May-2019 21:14:13
Local (UTC-5)  19-May-2019 16:14:13
 
METAR
KEDN 
12nm SE 
192055Z AUTO 21008KT 10SM SCT070 31/15 A2999 RMK AO2 T03050152
KSXS 
13nm E 
192058Z AUTO 22007KT 10SM SCT070 31/14 A2998 RMK AO2 SLP151 T03120139 57013
K79J 
17nm W 
192056Z AUTO 20007KT 10SM CLR 32/13 A2999 RMK AO2 SLP150 T03220133 58010
KLOR 
18nm E 
192058Z AUTO 20010G15KT 10SM CLR 32/14 A2997 RMK AO2 SLP130 T03210135 57014
KOZR 
21nm E 
192056Z AUTO 20009KT 10SM FEW190 32/12 A2998 RMK AO2 SLP152 T03200122 57013
KHEY 
23nm E 
192058Z AUTO 20007KT 10SM FEW080 31/15 A2997 RMK AO2 SLP148 T03120150 57013
TAF
NOTAMs
Click for the latest NOTAMs
NOTAMs are issued by the DoD/FAA and will open in a separate window not controlled by AirNav.

 

 
 

FBO, Fuel Providers, and Aircraft Ground Support

  
 Business Name 
 
 Contact 
 
 Services / Description 
 
Fuel Prices
 
Comments
  
Elba Airport Authority 334-897-3052
no information available

If you are affiliated with Elba Airport Authority and would like to show here your services, contact info, web link, logo, and more, click here
100LL
SS $3.97 
 Updated 01-May-2019
 
   write
SS=Self service
Update Fuel Prices
 

Would you like to see your business listed on this page?

 If your business provides an interesting product or service to pilots, flight crews, aircraft, or users of the Carl Folsom Airport, you should consider listing it here.  To start the listing process, click on the button below
 
Add a business
 

Other Pages about Carl Folsom Airport

Update a link
 
Copyright © AirNav, LLC. All rights reserved. Privacy Policy  Contact